Location: Newark
(45.2500°N, 7.7167°E)
Time: 08:09:36
(UTC+00:00)

ISS - Visible Passes

Search period start: 23 October 2019 00:00
Search period end: 02 November 2019 00:00
Orbit: 411 x 421 km, 51.6° (Epoch: 23 October)

Date Brightness Start Highest point End Pass type
(mag) Time Alt. Az. Time Alt. Az. Time Alt. Az.
24 Oct -1.0 04:48:29 10° S 04:50:53 18° SE 04:53:17 10° E visible
25 Oct -0.6 04:01:30 10° SSE 04:02:32 11° SE 04:03:34 10° ESE visible
26 Oct -2.7 04:47:00 10° SW 04:50:13 44° SE 04:53:27 10° ENE visible
27 Oct -2.0 04:00:54 24° SSE 04:01:45 27° SE 04:04:39 10° E visible
28 Oct -0.6 03:14:47 13° ESE 03:14:47 13° ESE 03:15:36 10° E visible
28 Oct -3.8 04:47:42 23° WSW 04:49:42 79° NNW 04:53:04 10° ENE visible
29 Oct -3.3 04:01:27 61° ESE 04:01:27 61° ESE 04:04:27 10° ENE visible
30 Oct -0.6 03:15:04 15° ENE 03:15:04 15° ENE 03:15:45 10° ENE visible
30 Oct -3.1 04:47:58 27° WNW 04:49:18 42° NNW 04:52:31 10° NE visible
31 Oct -2.7 04:01:29 40° NNE 04:01:29 40° NNE 04:03:55 10° NE visible
31 Oct -2.4 05:34:51 10° WNW 05:37:47 27° N 05:40:43 10° NE visible
01 Nov -0.4 03:14:56 13° ENE 03:14:56 13° ENE 03:15:18 10° ENE visible
01 Nov -2.5 04:47:50 23° NW 04:48:59 29° N 04:51:59 10° NE visible
